IRIDIUM 8 1 24792U 97020A 10067.75378041 -.00000786 +00000-0 -28799-3 0 09723 2 24792 086.3994 349.3485 0002396 077.8650 282.2938 14.34210231672307 IRIDIUM 7 1 24793U 97020B 10067.39859329 -.00001375 +00000-0 -49839-3 0 09663 2 24793 086.3999 349.6415 0002415 077.5142 282.6324 14.34208258672257 IRIDIUM 6 1 24794U 97020C 10067.67132701 -.00001262 +00000-0 -45776-3 0 07640 2 24794 086.4012 349.5117 0002490 071.4377 288.7107 14.34207746672290 IRIDIUM 5 1 24795U 97020D 10067.87428999 -.00000913 +00000-0 -33330-3 0 01122 2 24795 086.3998 349.5743 0001627 039.4681 320.6780 14.34209140672407 IRIDIUM 4 1 24796U 97020E 10067.76012380 -.00000528 +00000-0 -19577-3 0 09828 2 24796 086.3990 349.2402 0002409 079.0021 281.1558 14.34210452672329 IRIDIUM 914 1 24836U 97030A 10067.79012565 +.00000134 +00000-0 +38040-4 0 05499 2 24836 086.3956 012.9785 0002311 112.6881 247.4571 14.37466448667037 IRIDIUM 12 1 24837U 97030B 10067.82063562 +.00000248 +00000-0 +81400-4 0 09877 2 24837 086.3967 020.7680 0002467 080.9926 279.1568 14.34215092666064 IRIDIUM 10 1 24839U 97030D 10067.80797341 +.00000139 +00000-0 +42602-4 0 09843 2 24839 086.3964 020.7691 0002448 080.8440 279.3058 14.34217869666075 IRIDIUM 13 1 24840U 97030E 10067.89674366 -.00000550 +00000-0 -20346-3 0 09529 2 24840 086.3977 020.8129 0002504 077.8323 282.3079 14.34214461666079 IRIDIUM 16 1 24841U 97030F 10067.81343497 +.00000250 +00000-0 +80276-4 0 09827 2 24841 086.4051 021.4277 0002617 037.4537 322.6856 14.35327398666233 IRIDIUM 911 1 24842U 97030G 10067.81003378 +.00000126 +00000-0 +31382-4 0 06406 2 24842 086.4464 023.5341 0012515 265.6457 094.3327 14.43222488669457 IRIDIUM 15 1 24869U 97034A 10067.53867077 +.00000027 +00000-0 +26546-5 0 00188 2 24869 086.3914 052.5708 0002410 088.3042 271.8434 14.34214836662998 IRIDIUM 17 1 24870U 97034B 10067.37316492 +.00000092 +00000-0 +25506-4 0 09873 2 24870 086.3906 052.4964 0002397 074.3267 285.8203 14.34472577662999 IRIDIUM 920 1 24871U 97034C 10067.83133664 +.00000153 +00000-0 +43959-4 0 05891 2 24871 086.3940 044.7997 0014330 074.0454 286.2334 14.38102624664262 IRIDIUM 18 1 24872U 97034D 10065.26801962 -.00000061 00000-0 -28824-4 0 9742 2 24872 086.3936 053.6731 0002466 080.5022 279.6456 14.34214617662668 IRIDIUM 921 1 24873U 97034E 10067.80677458 +.00000920 +00000-0 +76617-4 0 09606 2 24873 086.3832 228.4804 0007937 330.1479 029.9319 14.97326099688800 IRIDIUM 26 1 24903U 97043A 10067.69611820 -.00000312 +00000-0 -11836-3 0 00775 2 24903 086.3906 286.2288 0002312 086.8862 273.2614 14.34217063656951 IRIDIUM 25 1 24904U 97043B 10067.65806195 -.00000628 +00000-0 -23150-3 0 09695 2 24904 086.3910 286.1898 0002282 082.4492 277.6948 14.34216669656915 IRIDIUM 46 1 24905U 97043C 10067.74051514 -.00000481 +00000-0 -17897-3 0 09938 2 24905 086.3916 286.4612 0002323 080.5533 279.5933 14.34217201656930 IRIDIUM 23 1 24906U 97043D 10067.71514538 -.00000532 +00000-0 -19704-3 0 09921 2 24906 086.3905 286.0952 0002241 082.4329 277.7125 14.34216684656932 IRIDIUM 22 1 24907U 97043E 10067.84833912 -.00000392 +00000-0 -14714-3 0 09612 2 24907 086.3915 286.4687 0002267 084.0931 276.0535 14.34217123656956 DUMMY MASS 1 1 24925U 97048A 10067.75675455 +.00000089 +00000-0 +74001-5 0 04694 2 24925 086.3390 187.1707 0009830 068.7513 291.4783 14.83850956677366 DUMMY MASS 2 1 24926U 97048B 10067.72900562 +.00000126 +00000-0 +11930-4 0 04617 2 24926 086.3386 187.8700 0010719 071.1221 289.1173 14.83632087677263 IRIDIUM 29 1 24944U 97051A 10067.78842583 -.00000136 +00000-0 -55489-4 0 09317 2 24944 086.3967 317.7651 0002220 083.1745 276.9728 14.34216422653518 IRIDIUM 32 1 24945U 97051B 10067.73768661 -.00000709 +00000-0 -26028-3 0 09421 2 24945 086.3974 317.8027 0002346 075.8438 284.3048 14.34214889653525 IRIDIUM 33 1 24946U 97051C 10067.72690963 +.00000027 +00000-0 +27406-5 0 00649 2 24946 086.3886 317.8982 0005873 250.4583 109.5966 14.32509333653467 IRIDIUM 28 1 24948U 97051E 10067.83613227 +.00000147 +00000-0 +45503-4 0 08100 2 24948 086.3975 317.8996 0002012 073.2486 286.8930 14.34297686653511 IRIDIUM 30 1 24949U 97051F 10067.80111254 -.00000292 +00000-0 -11149-3 0 09800 2 24949 086.3966 317.8322 0002347 078.6628 281.4884 14.34215703653512 IRIDIUM 31 1 24950U 97051G 10067.79476760 -.00000291 +00000-0 -11095-3 0 09580 2 24950 086.3962 317.8297 0002323 079.9577 280.1895 14.34216205653529 IRIDIUM 19 1 24965U 97056A 10067.70938302 -.00000625 +00000-0 -23042-3 0 09437 2 24965 086.4007 349.3468 0002388 077.6882 282.4664 14.34209625651650 IRIDIUM 35 1 24966U 97056B 10067.86160148 -.00001175 +00000-0 -42693-3 0 09793 2 24966 086.4022 349.3055 0002301 078.4149 281.7237 14.34210758651657 IRIDIUM 36 1 24967U 97056C 10067.75805782 +.00000054 +00000-0 +12184-4 0 09259 2 24967 086.4027 349.4140 0002257 082.8987 277.2479 14.34319381651782 IRIDIUM 37 1 24968U 97056D 10067.76646510 -.00001026 +00000-0 -37347-3 0 09533 2 24968 086.4007 349.4522 0002275 080.6265 279.5297 14.34209740651645 IRIDIUM 34 1 24969U 97056E 10067.78548938 -.00001128 +00000-0 -40990-3 0 09318 2 24969 086.3999 349.3876 0002332 079.0717 281.0693 14.34211255651646 IRIDIUM 43 1 25039U 97069A 10067.91286979 -.00000097 +00000-0 -41587-4 0 09431 2 25039 086.3928 052.5873 0002351 080.2658 279.8810 14.34214853645440 IRIDIUM 41 1 25040U 97069B 10067.90652955 -.00000048 +00000-0 -24380-4 0 09329 2 25040 086.3913 052.4929 0002362 079.8537 280.2947 14.34215004645445 IRIDIUM 40 1 25041U 97069C 10067.51328585 -.00000005 +00000-0 -90097-5 0 09632 2 25041 086.3916 052.6222 0002396 086.6090 273.5380 14.34215244645402 IRIDIUM 39 1 25042U 97069D 10065.35678645 -.00000099 00000-0 -42485-4 0 9290 2 25042 086.3911 053.7021 0002332 076.1955 283.9505 14.34215631645078 IRIDIUM 38 1 25043U 97069E 10067.42896502 +.00000071 +00000-0 +18010-4 0 09582 2 25043 086.3915 051.9707 0002311 062.3020 297.8413 14.34724710645492 IRIDIUM 42 1 25077U 97077A 10067.85578222 +.00000066 +00000-0 +16631-4 0 09537 2 25077 086.3921 052.5604 0002344 081.4445 278.7024 14.34215790641291 IRIDIUM 44 1 25078U 97077B 10067.89258316 +.00000116 +00000-0 +32746-4 0 04447 2 25078 086.3916 047.6292 0003084 033.6480 326.4920 14.36600216641934 IRIDIUM 45 1 25104U 97082A 10067.66440445 -.00000432 +00000-0 -16128-3 0 08862 2 25104 086.3908 286.2032 0002356 083.4333 276.7142 14.34216832639462 IRIDIUM 24 1 25105U 97082B 10067.70828729 +.00000136 +00000-0 +38089-4 0 04971 2 25105 086.3864 276.0061 0014086 080.3716 279.9064 14.38315015640677 IRIDIUM 47 1 25106U 97082C 10067.74685795 -.00000391 +00000-0 -14657-3 0 08805 2 25106 086.3910 286.1085 0002349 078.3522 281.7931 14.34218134639479 IRIDIUM 49 1 25108U 97082E 10067.82931235 -.00000528 +00000-0 -19576-3 0 09009 2 25108 086.3919 286.1043 0002346 084.9936 275.1533 14.34216546639495 IRIDIUM 52 1 25169U 98010A 10067.78892264 +.00000216 +00000-0 +69916-4 0 06835 2 25169 086.3978 020.9526 0002420 081.3559 278.7929 14.34215129630891 IRIDIUM 56 1 25170U 98010B 10067.85234913 +.00000168 +00000-0 +52770-4 0 05752 2 25170 086.3978 020.9781 0002426 079.7581 280.3900 14.34214638630889 IRIDIUM 54 1 25171U 98010C 10067.88406316 +.00000121 +00000-0 +36186-4 0 09086 2 25171 086.3975 020.9180 0002403 082.2717 277.8762 14.34214387631053 IRIDIUM 50 1 25172U 98010D 10067.70646647 +.00000226 +00000-0 +73765-4 0 09351 2 25172 086.3982 020.9621 0002444 078.8373 281.3105 14.34215283630861 IRIDIUM 53 1 25173U 98010E 10067.72549728 +.00000144 +00000-0 +44537-4 0 09147 2 25173 086.3976 020.9634 0002438 079.2492 280.8983 14.34214474630879 IRIDIUM 51 1 25262U 98018A 10067.75541899 +.00000276 +00000-0 +76659-4 0 00279 2 25262 086.4519 349.5336 0002516 079.3261 280.8225 14.42957204629526 IRIDIUM 61 1 25263U 98018B 10067.77280720 -.00001153 +00000-0 -41910-3 0 08743 2 25263 086.4000 349.4241 0002388 079.5511 280.6000 14.34210002625976 IRIDIUM 55 1 25272U 98019A 10067.77574052 -.00000428 +00000-0 -15984-3 0 08654 2 25272 086.3964 317.7161 0002281 081.7908 278.3564 14.34215633625176 IRIDIUM 57 1 25273U 98019B 10067.75037176 -.00000446 +00000-0 -16651-3 0 09039 2 25273 086.3972 317.9146 0002293 080.4614 279.6920 14.34215478625171 IRIDIUM 58 1 25274U 98019C 10067.75671545 -.00000571 +00000-0 -21115-3 0 07166 2 25274 086.3968 318.0313 0002342 077.5599 282.5943 14.34215030625171 IRIDIUM 59 1 25275U 98019D 10067.90259031 -.00000059 +00000-0 -27971-4 0 05678 2 25275 086.3987 317.9683 0002459 073.9366 286.2100 14.34218367625196 IRIDIUM 60 1 25276U 98019E 10067.76940043 -.00000245 +00000-0 -94453-4 0 09426 2 25276 086.3964 317.7465 0002245 081.7710 278.3827 14.34215674625175 IRIDIUM 62 1 25285U 98021A 10067.66095558 -.00000106 +00000-0 -44794-4 0 09047 2 25285 086.3898 254.6002 0002290 086.2314 273.9126 14.34216228624119 IRIDIUM 63 1 25286U 98021B 10067.66729842 -.00000120 +00000-0 -49790-4 0 09214 2 25286 086.3890 254.6885 0002311 081.7951 278.3511 14.34216106624114 IRIDIUM 64 1 25287U 98021C 10067.60387424 -.00000092 +00000-0 -39886-4 0 08699 2 25287 086.3898 254.6465 0002285 085.4669 274.6773 14.34216101624084 IRIDIUM 65 1 25288U 98021D 10067.61021333 -.00000092 +00000-0 -39787-4 0 09045 2 25288 086.3884 254.5928 0002353 073.2925 286.8532 14.34216453624100 IRIDIUM 66 1 25289U 98021E 10067.47701984 -.00000090 +00000-0 -39349-4 0 08622 2 25289 086.3891 254.5750 0002296 080.0461 280.1001 14.34216469624081 IRIDIUM 67 1 25290U 98021F 10067.62290328 -.00000168 +00000-0 -67227-4 0 06918 2 25290 086.3889 254.6088 0002311 083.6129 276.5336 14.34215561624119 IRIDIUM 68 1 25291U 98021G 10067.69901374 -.00000118 +00000-0 -49266-4 0 09030 2 25291 086.3901 254.6471 0002425 084.8575 275.2908 14.34215877624093 IRIDIUM 69 1 25319U 98026A 10067.74574505 +.00000135 +00000-0 +38604-4 0 07448 2 25319 086.3936 282.1636 0002979 037.7979 322.3418 14.37133400621170 IRIDIUM 71 1 25320U 98026B 10067.74880108 +.00000098 +00000-0 +25830-4 0 04429 2 25320 086.3913 279.4217 0004414 074.9073 285.2614 14.37718603621477 IRIDIUM 70 1 25342U 98032A 10067.65461020 +.00000052 +00000-0 +11657-4 0 09234 2 25342 086.3906 254.7836 0002498 080.2259 279.9236 14.34217294618194 IRIDIUM 72 1 25343U 98032B 10067.64192839 -.00000271 +00000-0 -10399-3 0 09116 2 25343 086.3891 254.5743 0002320 080.3666 279.7794 14.34215168618195 IRIDIUM 73 1 25344U 98032C 10067.45832910 +.00000115 +00000-0 +25882-4 0 08058 2 25344 086.4362 244.2492 0001788 057.5243 302.6136 14.47172123622942 IRIDIUM 74 1 25345U 98032D 10067.84493006 -.00000091 +00000-0 -33420-4 0 09391 2 25345 086.4410 254.6592 0002439 081.1870 278.9614 14.42949510619552 IRIDIUM 75 1 25346U 98032E 10067.85757761 +.00000092 +00000-0 +25799-4 0 09438 2 25346 086.3899 254.6416 0002196 080.7234 279.4230 14.34217102618798 IRIDIUM 03 1 25431U 98048A 10067.84199802 -.00000631 +00000-0 -23259-3 0 08679 2 25431 086.3913 286.2712 0002778 076.9568 283.1929 14.34216196604731 IRIDIUM 76 1 25432U 98048B 10067.72148957 -.00000323 +00000-0 -12236-3 0 07964 2 25432 086.3911 286.1602 0002843 092.6622 267.4906 14.34217070604705 IRIDIUM 82 1 25467U 98051A 10067.69088288 -.00000022 +00000-0 -14947-4 0 00312 2 25467 086.3929 052.6541 0002441 059.0604 301.0836 14.34214851605714 IRIDIUM 81 1 25468U 98051B 10067.89381964 -.00000178 +00000-0 -70533-4 0 08607 2 25468 086.3918 052.3845 0002377 080.9751 279.1756 14.34212111601967 IRIDIUM 80 1 25469U 98051C 10067.52599516 -.00000086 +00000-0 -37859-4 0 08660 2 25469 086.3920 052.6856 0002413 084.2621 275.8843 14.34215454601918 IRIDIUM 77 1 25471U 98051E 10067.81140027 +.00000019 +00000-0 -13553-6 0 00309 2 25471 086.3913 052.4115 0003558 076.3942 283.7656 14.34214932607150 IRIDIUM 2 1 25527U 98066A 10067.71114898 +.00000371 +00000-0 +28592-4 0 03257 2 25527 085.5630 129.9725 0009362 340.7334 019.3541 14.98210072617831 IRIDIUM 86 1 25528U 98066B 10067.83966476 +.00000154 +00000-0 +47829-4 0 00876 2 25528 086.3962 020.6273 0003085 066.0153 294.1377 14.34214642598483 IRIDIUM 84 1 25530U 98066D 10067.80160502 -.00000145 +00000-0 -58874-4 0 07390 2 25530 086.3965 020.7576 0002425 081.2139 278.9318 14.34216486596117 IRIDIUM 83 1 25531U 98066E 10067.83332165 +.00000214 +00000-0 +69494-4 0 08699 2 25531 086.3969 020.7668 0002450 079.3876 280.7608 14.34214884593477 IRIDIUM 20 1 25577U 98074A 10067.75320147 -.00000542 +00000-0 -20054-3 0 07813 2 25577 086.3907 286.1072 0002267 080.0424 280.1047 14.34216385587540 IRIDIUM 11 1 25578U 98074B 10067.75213120 -.00000013 +00000-0 -80589-5 0 09968 2 25578 086.5109 286.3383 0002465 082.9539 277.1934 14.54937718596017 IRIDIUM 14 1 25777U 99032A 10067.88586669 -.00000019 +00000-0 -94236-5 0 09666 2 25777 086.5073 254.5392 0002471 079.4079 280.7429 14.54933057570419 IRIDIUM 21 1 25778U 99032B 10067.84489281 -.00000047 +00000-0 -23865-4 0 08530 2 25778 086.3899 254.5678 0003688 109.4936 250.6662 14.34216685567238 IRIDIUM 91 1 27372U 02005A 10067.67425280 -.00000458 +00000-0 -17069-3 0 04525 2 27372 086.3982 318.1145 0001862 317.7119 042.3974 14.34215378430721 IRIDIUM 90 1 27373U 02005B 10067.89951956 +.00000142 +00000-0 +36580-4 0 04207 2 27373 086.4486 020.5831 0004474 164.5722 195.5602 14.42947234428164 IRIDIUM 94 1 27374U 02005C 10067.78213814 +.00000223 +00000-0 +36321-4 0 05259 2 27374 086.5780 317.5965 0002474 081.0370 279.1095 14.66246832431936 IRIDIUM 95 1 27375U 02005D 10067.78208435 -.00000550 +00000-0 -20364-3 0 04290 2 27375 086.3978 317.8714 0002428 079.9522 280.1958 14.34215175430023 IRIDIUM 96 1 27376U 02005E 10067.78834655 +.00000253 +00000-0 +41771-4 0 05172 2 27376 086.5784 317.5388 0002412 077.7241 282.4228 14.66246938431934 IRIDIUM 97 1 27450U 02031A 10067.79816671 -.00000935 +00000-0 -34094-3 0 03360 2 27450 086.3999 349.5773 0001015 305.1945 054.9042 14.34212636409342 IRIDIUM 98 1 27451U 02031B 10067.85550346 -.00000062 +00000-0 -24668-4 0 03775 2 27451 086.4460 052.7787 0002556 343.3691 016.7431 14.42947919409018